Terminal Aerodrome Forecast
Issued by NWS

Home | Current Version | Previous Version | Text Only | Print | Product List | Glossary On
Versions: 1 2 3 4 5 6 7 8 9 10 11 12 13
000
FTUS42 KRAH 182333
TAFRWI
TAF
KRWI 182333Z 1900/1924 02009KT P6SM OVC250
     FM190300 03010KT P6SM -RA OVC025
     FM190600 06011KT 5SM -RA BR OVC007
     FM191200 05011G21KT 2SM -RA BR OVC004
     FM192300 05012G22KT 4SM -RA BR SCT007 OVC012=

USA.gov is the U.S. government's official web portal to all federal, state and local government web resources and services.